Gwinn, MI

6:01 AM EDT on May 26, 2018 (GMT -0400)
Sawyer International

Weather History for KSAW - November, 2013

Change the Weather History Date:

Sunday, November 3, 2013

  Actual Average (WUND) Record (WUND)
Temperature  
Mean Temperature 35 °F -  
Max Temperature 42 °F - - (-1)
Min Temperature 28 °F - - (-1)
Degree Days  
Heating Degree Days 30    
Moisture  
Dew Point 30 °F    
Average Humidity 85    
Maximum Humidity 93    
Minimum Humidity 65    
Precipitation  
Precipitation 0.00 in - - ()
Sea Level Pressure  
Sea Level Pressure 30.21 in    
Wind  
Wind Speed 4 mph (South)    
Max Wind Speed 15 mph    
Max Gust Speed 18 mph    
Visibility 10 miles    
Events      
Averages and records for this station are not official NWS values.
T = Trace of Precipitation, MM = Missing Value Source: NWS Daily Summary

Daily Weather History Graph

Daily Weather History Graph

Search for Another Location

Airport or City:

Astronomy

Nov. 03, 2013 Rise Set
Actual Time 7:34 AM EST 5:31 PM EST
Civil Twilight 7:02 AM EST 6:03 PM EST
Nautical Twilight 6:26 AM EST 6:38 PM EST
Astronomical Twilight 5:51 AM EST 7:13 PM EST
Moon 7:38 AM EST (11/3) 5:44 PM EST (11/3)
Length of Visible Light 11h 00m
Length of Day
9h 57m
New Moon, 0% of the Moon is Illuminated
Nov 3
New Moon
Nov 10
First Quarter
Nov 17
Full
Nov 25
Last Quarter
Dec 2
New

Hourly Weather History & Observations

Time (EST) Temp. Windchill Dew Point Humidity Pressure Visibility Wind Dir Wind Speed Gust Speed Precip Events Conditions
12:16 AM 33.4 °F 30.4 °F 30.6 °F 89% 30.13 in 10.0 mi SSE 3.5 mph - N/A   Overcast
12:37 AM 32.5 °F - 30.2 °F 91% 30.14 in 10.0 mi Calm Calm - N/A   Overcast
12:56 AM 32.7 °F 28.3 °F 29.8 °F 89% 30.14 in 10.0 mi South 4.6 mph - N/A   Overcast
1:17 AM 32.4 °F 29.1 °F 29.8 °F 90% 30.14 in 10.0 mi South 3.5 mph - N/A   Overcast
1:36 AM 32.0 °F - 29.8 °F 92% 30.15 in 10.0 mi Calm Calm - N/A   Overcast
1:56 AM 32.0 °F 28.7 °F 30.0 °F 92% 30.15 in 10.0 mi SSW 3.5 mph - N/A   Overcast
1:17 AM 32.0 °F 27.5 °F 29.3 °F 90% 30.16 in 10.0 mi South 4.6 mph - N/A   Overcast
1:36 AM 31.8 °F - 29.3 °F 90% 30.16 in 10.0 mi Calm Calm - N/A   Overcast
1:56 AM 31.5 °F 28.1 °F 29.3 °F 92% 30.17 in 10.0 mi SSW 3.5 mph - N/A   Overcast
2:17 AM 31.1 °F - 29.3 °F 93% 30.17 in 10.0 mi Calm Calm - N/A   Overcast
2:36 AM 31.1 °F - 29.3 °F 93% 30.18 in 10.0 mi Calm Calm - N/A   Overcast
2:57 AM 30.9 °F - 28.8 °F 92% 30.19 in 10.0 mi Calm Calm - N/A   Overcast
3:16 AM 31.1 °F 27.7 °F 28.9 °F 92% 30.19 in 10.0 mi SSE 3.5 mph - N/A   Overcast
3:36 AM 31.1 °F - 28.4 °F 90% 30.19 in 10.0 mi Calm Calm - N/A   Overcast
3:57 AM 30.7 °F - 27.9 °F 89% 30.20 in 10.0 mi Calm Calm - N/A   Overcast
4:16 AM 29.8 °F 26.3 °F 27.9 °F 92% 30.21 in 10.0 mi SSW 3.5 mph - N/A   Overcast
4:36 AM 29.8 °F 26.3 °F 27.9 °F 92% 30.21 in 10.0 mi SSW 3.5 mph - N/A   Overcast
4:57 AM 30.9 °F 25.2 °F 27.9 °F 88% 30.22 in 10.0 mi South 5.8 mph - N/A   Overcast
5:16 AM 30.4 °F 25.6 °F 27.5 °F 89% 30.22 in 10.0 mi South 4.6 mph - N/A   Overcast
5:37 AM 30.2 °F - 27.1 °F 88% 30.22 in 10.0 mi Calm Calm - N/A   Mostly Cloudy
5:56 AM 29.5 °F - 27.0 °F 90% 30.22 in 10.0 mi Calm Calm - N/A   Mostly Cloudy
6:50 AM 28.4 °F - 26.6 °F 93% 30.23 in 10.0 mi Calm Calm - N/A   Mostly Cloudy
7:50 AM 28.4 °F 24.6 °F 24.8 °F 86% 30.25 in 10.0 mi SSW 3.5 mph - N/A   Scattered Clouds
9:50 AM 35.6 °F 28.6 °F 26.6 °F 70% 30.26 in 10.0 mi South 9.2 mph - N/A   Partly Cloudy
10:50 AM 37.4 °F 31.4 °F 28.4 °F 70% 30.27 in 10.0 mi SSE 8.1 mph - N/A   Scattered Clouds
11:50 AM 39.2 °F 32.0 °F 30.2 °F 70% 30.28 in 10.0 mi South 11.5 mph - N/A   Mostly Cloudy
12:50 PM 41.0 °F 34.3 °F 30.2 °F 65% 30.26 in 10.0 mi South 11.5 mph - N/A   Mostly Cloudy
1:55 PM 42.8 °F 37.0 °F 32.0 °F 66% 30.25 in 10.0 mi South 10.4 mph - N/A   Mostly Cloudy
2:55 PM 42.8 °F 36.6 °F 32.0 °F 66% 30.24 in 10.0 mi SSE 11.5 mph - N/A   Mostly Cloudy
3:55 PM 41.0 °F 34.3 °F 33.8 °F 76% 30.24 in 10.0 mi SSE 11.5 mph - N/A   Clear
4:55 PM 41.0 °F 34.3 °F 35.6 °F 81% 30.24 in 10.0 mi SE 11.5 mph - N/A   Mostly Cloudy
5:55 PM 37.4 °F 30.3 °F 33.8 °F 87% 30.24 in 10.0 mi SSE 10.4 mph - N/A   Mostly Cloudy
6:50 PM 37.4 °F 30.3 °F 33.8 °F 87% 30.24 in 10.0 mi SSE 10.4 mph - N/A   Mostly Cloudy
7:50 PM 35.6 °F 27.1 °F 33.8 °F 93% 30.23 in 10.0 mi SSE 12.7 mph - N/A   Clear
8:50 PM 37.4 °F 30.3 °F 33.8 °F 87% 30.23 in 10.0 mi SSE 10.4 mph - N/A   Overcast
9:55 PM 39.2 °F 31.6 °F 33.8 °F 81% 30.23 in 10.0 mi SSE 12.7 mph - N/A   Overcast
10:16 PM 38.7 °F 30.1 °F 34.2 °F 84% 30.22 in 10.0 mi SSE 15.0 mph - N/A   Overcast
10:37 PM 39.2 °F 31.2 °F 34.7 °F 84% 30.22 in 10.0 mi SSE 13.8 mph 18.4 mph N/A   Overcast
10:56 PM 39.2 °F 31.2 °F 34.9 °F 84% 30.22 in 10.0 mi South 13.8 mph - N/A   Overcast